Voltar ao catálogo

KUIPER-00244

AtivoComunicaçõesLEO
NORAD 68583·PAYLOAD·🇺🇸 United States

Lançado Apr 4, 2026 de Cape Canaveral Space Force Station

Loading…

Próximas Passagens (próximas 24 horas)

TLE

AtualizadoSource: CelesTrak SupGP

Época: Sep 14, 2026, 19:01 UTC

1 68583C 26072L   26257.79276620 -.00000595  00000+0 -77885-4 0  2574
2 68583  51.8983 144.4265 0001042  89.8529 129.1571 14.79923248    16

Acompanhe KUIPER-00244 em tempo real com AllMySat

Download on the App Store